Location: Elbart
(49.6135°N, 11.9134°E)
Time: 18:52:42
(UTC+00:00)

Cosmos 220 Rocket - Pass Details

Date: 09 April 2020
Orbit: 574 x 618 km, 74.0° (Epoch: 24 May)

Event Time Altitude Azimuth Distance (km) Brightness Sun altitude
Rises 19:12:58 0° 339° (NNW) 2,840 8.3 -12.3°
Reaches altitude 10° 19:15:14 10° 344° (NNW) 1,941 7.3 -12.6°
Maximum altitude 19:19:30 55° 62° (ENE) 729 4.2 -13.2°
Enters shadow 19:22:14 21° 134° (SE) 1,371 5.2 -13.6°
